Retour au catalogue

CZ-4B DEB

ActifPO
NORAD 39052·DEBRIS·🇨🇳 China

Lancé Oct 14, 1999 depuis Taiyuan Satellite Launch Center

Loading…

Prochains Passages (prochaines 24 heures)

TLE

FraisSource: Space-Track

Époque: Sep 14, 2026, 08:40 UTC

1 39052U 99057SZ  26257.36171028  .00000915  00000-0  85470-4 0  9992
2 39052  98.7320 303.7587 0057968 102.9840 257.7859 14.95956027752131

Suivez CZ-4B DEB en temps réel avec AllMySat

Download on the App Store